Main page
METAR-TAF:

METAR-TAF

Airports :

Lawrence Municipal Airport

Lawrence, Kansas, United States

latitude: 39-00-30N, longitude: 095-12-42W, elevation: 830 ft

Current weather observation

The report was made 35 minutes ago, at 17:52 UTC
Wind 28 mph from the South/Southwest with gusts up to 39 mph
Temperature 77°F
Humidity 32%
Pressure 29.59 in. Hg
Visibility: 10 miles
Clear sky

METAR: KLWC 031752Z AUTO 21024G34KT 10SM CLR 25/07 A2959 RMK AO1 PK WND 22034/1732 SLP014 T02500072 10250 20156 55006

Time: 12:27 (18:27 UTC)


TAF: missing

Weather observations and forecasts of more than 4000 airports (METAR and TAF reports).

The available stations are represented by yellow and red dots on the map.

Hover mouse over dot to see the name of the station.

Then click to see weather observations and forecasts.

To change the map : click on the green buttons with a black cross to zoom in, on the green button with a dash to zoom out, or on the green arrows for adjacent maps.


METAR-TAF: